TimeEST,TemperatureF,Dew PointF,Humidity,Sea Level PressureIn,VisibilityMPH,Wind Direction,Wind SpeedMPH,Gust SpeedMPH,PrecipitationIn,Events,Conditions,WindDirDegrees,DateUTC
12:01 AM,24.8,19.4,80,29.83,1.0,WSW,8.1,-,0.00,Snow,Light Snow,250,2013-02-01 05:01:00
12:13 AM,24.8,21.2,86,29.82,1.0,WSW,4.6,-,0.00,Snow,Light Snow,250,2013-02-01 05:13:00
12:27 AM,24.8,21.2,86,29.82,1.5,WSW,3.5,-,0.00,Snow,Light Snow,250,2013-02-01 05:27:00
12:48 AM,24.8,21.2,86,29.81,2.0,Calm,Calm,-,0.00,Snow,Light Snow,0,2013-02-01 05:48:00
12:53 AM,24.1,21.0,88,29.84,2.0,West,3.5,-,0.00,Snow,Light Snow,280,2013-02-01 05:53:00
1:01 AM,24.8,21.2,86,29.82,1.5,WSW,3.5,-,0.00,Snow,Light Snow,250,2013-02-01 06:01:00
1:08 AM,24.8,21.2,86,29.81,1.0,SSW,3.5,-,0.00,Snow,Light Snow,200,2013-02-01 06:08:00
1:22 AM,24.8,21.2,86,29.81,3.0,South,3.5,-,0.00,Snow,Light Snow,190,2013-02-01 06:22:00
1:36 AM,24.8,21.2,86,29.80,9.0,SW,6.9,-,0.00,,Overcast,220,2013-02-01 06:36:00
1:53 AM,25.0,19.9,81,29.82,8.0,WSW,9.2,-,0.00,,Overcast,250,2013-02-01 06:53:00
2:11 AM,24.8,21.2,86,29.82,1.8,WNW,18.4,26.5,0.00,Snow,Light Snow,290,2013-02-01 07:11:00
2:14 AM,23.0,19.4,86,29.82,0.5,WNW,25.3,32.2,0.00,Fog-Snow,Snow,290,2013-02-01 07:14:00
2:24 AM,21.2,19.4,93,29.82,0.2,NW,11.5,28.8,0.00,Fog-Snow,Heavy Snow,320,2013-02-01 07:24:00
2:42 AM,21.2,17.6,86,29.84,1.0,NW,13.8,-,0.00,Snow,Light Snow,310,2013-02-01 07:42:00
2:49 AM,21.2,17.6,86,29.85,1.2,WNW,9.2,-,0.00,Snow,Light Snow,300,2013-02-01 07:49:00
2:53 AM,21.9,18.0,85,29.88,1.2,WNW,10.4,-,0.00,Snow,Light Snow,290,2013-02-01 07:53:00
3:47 AM,21.2,17.6,86,29.90,0.8,West,8.1,-,0.00,Snow,Light Snow,270,2013-02-01 08:47:00
3:53 AM,21.0,18.0,88,29.93,0.5,WNW,9.2,-,0.00,Fog-Snow,Snow,300,2013-02-01 08:53:00
4:05 AM,21.2,17.6,86,29.91,0.8,WNW,10.4,-,0.00,Snow,Light Snow,290,2013-02-01 09:05:00
4:35 AM,19.4,15.8,86,29.93,1.0,WNW,13.8,-,0.00,Snow,Light Snow,290,2013-02-01 09:35:00
4:43 AM,19.4,15.8,86,29.94,2.0,WNW,6.9,-,0.00,Snow,Light Snow,290,2013-02-01 09:43:00
4:53 AM,19.9,15.1,81,29.98,1.8,West,11.5,18.4,0.00,Snow,Light Snow,270,2013-02-01 09:53:00
5:08 AM,19.4,15.8,86,29.96,0.8,West,16.1,24.2,0.00,Snow,Light Snow,280,2013-02-01 10:08:00
5:24 AM,17.6,12.2,79,29.98,1.0,WNW,20.7,31.1,0.00,Snow,Light Snow,290,2013-02-01 10:24:00
5:32 AM,17.6,10.4,73,29.99,2.0,WNW,17.3,27.6,0.00,Snow,Light Snow,300,2013-02-01 10:32:00
5:38 AM,17.6,12.2,79,29.99,1.2,WNW,16.1,25.3,0.00,Snow,Light Snow,290,2013-02-01 10:38:00
5:53 AM,17.1,10.0,74,30.04,1.0,West,21.9,28.8,0.00,Snow,Light Snow,280,2013-02-01 10:53:00
6:09 AM,15.8,10.4,79,30.02,2.0,WNW,12.7,24.2,0.00,Snow,Light Snow,290,2013-02-01 11:09:00
6:26 AM,15.8,10.4,79,30.04,0.8,WNW,17.3,25.3,0.00,Snow,Light Snow,290,2013-02-01 11:26:00
6:37 AM,15.8,8.6,73,30.05,1.5,WNW,17.3,26.5,0.00,Snow,Light Snow,290,2013-02-01 11:37:00
6:53 AM,14.0,7.0,74,30.11,1.8,West,21.9,31.1,0.00,Snow,Light Snow,270,2013-02-01 11:53:00
6:58 AM,14.0,6.8,73,30.08,3.0,West,13.8,31.1,0.00,Snow,Light Snow,280,2013-02-01 11:58:00
7:15 AM,12.2,3.2,67,30.09,4.0,WNW,17.3,24.2,0.00,,Mostly Cloudy,290,2013-02-01 12:15:00
7:44 AM,12.2,3.2,67,30.12,8.0,WNW,13.8,-,0.00,,Overcast,290,2013-02-01 12:44:00
7:53 AM,12.9,6.1,74,30.17,0.5,West,9.2,-,0.00,Snow,Snow,280,2013-02-01 12:53:00
8:04 AM,12.2,8.6,85,30.13,1.0,West,10.4,-,0.00,Snow,Light Snow,280,2013-02-01 13:04:00
8:21 AM,12.2,8.6,85,30.14,0.8,West,12.7,19.6,0.00,Snow,Light Snow,260,2013-02-01 13:21:00
8:36 AM,12.2,8.6,85,30.16,0.2,WSW,11.5,-,0.00,Snow,Light Snow,250,2013-02-01 13:36:00
8:45 AM,12.2,6.8,79,30.17,0.8,WSW,13.8,21.9,0.00,Snow,Light Snow,250,2013-02-01 13:45:00
8:53 AM,12.0,6.1,77,30.21,0.8,WSW,11.5,19.6,0.00,Snow,Light Snow,250,2013-02-01 13:53:00
9:00 AM,12.2,6.8,79,30.17,1.2,West,12.7,21.9,0.00,Snow,Light Snow,260,2013-02-01 14:00:00
9:15 AM,12.2,3.2,67,30.19,2.5,West,11.5,20.7,0.00,Snow,Light Snow,270,2013-02-01 14:15:00
9:38 AM,10.4,3.2,73,30.20,1.8,West,15.0,25.3,0.00,Snow,Light Snow,270,2013-02-01 14:38:00
9:45 AM,10.4,1.4,67,30.21,2.0,West,15.0,25.3,0.00,Snow,Light Snow,270,2013-02-01 14:45:00
9:50 AM,12.2,1.4,62,30.21,3.0,West,12.7,23.0,0.00,Snow,Light Snow,270,2013-02-01 14:50:00
10:10 AM,10.4,3.2,73,30.22,1.8,WSW,11.5,-,0.00,Snow,Light Snow,250,2013-02-01 15:10:00
10:18 AM,10.4,5.0,79,30.23,0.5,West,10.4,-,0.00,Snow,Snow,260,2013-02-01 15:18:00
10:29 AM,12.2,3.2,67,30.23,2.0,West,8.1,19.6,0.00,Snow,Light Snow,260,2013-02-01 15:29:00
10:33 AM,12.2,1.4,62,30.23,6.0,West,15.0,25.3,0.00,Snow,Light Snow,260,2013-02-01 15:33:00
10:53 AM,12.0,1.0,61,30.29,6.0,WSW,10.4,19.6,0.00,Snow,Blowing Snow,250,2013-02-01 15:53:00
11:17 AM,12.2,1.4,62,30.25,6.0,WSW,13.8,-,0.00,,Overcast,250,2013-02-01 16:17:00
11:46 AM,12.2,1.4,62,30.26,9.0,WSW,9.2,-,0.00,,Overcast,240,2013-02-01 16:46:00
11:53 AM,12.9,3.0,65,30.30,8.0,WSW,11.5,-,0.00,,Overcast,250,2013-02-01 16:53:00
12:33 PM,12.2,6.8,79,30.26,2.5,WSW,10.4,-,0.00,Snow,Light Snow,250,2013-02-01 17:33:00
12:39 PM,12.2,6.8,79,30.26,1.8,WSW,12.7,-,0.00,Snow,Light Snow,250,2013-02-01 17:39:00
12:46 PM,14.0,5.0,67,30.26,3.0,WSW,13.8,-,0.00,Snow,Light Snow,250,2013-02-01 17:46:00
12:53 PM,14.0,3.0,62,30.30,8.0,West,13.8,20.7,0.00,,Overcast,260,2013-02-01 17:53:00
1:53 PM,14.0,3.0,62,30.30,10.0,West,10.4,-,N/A,,Overcast,270,2013-02-01 18:53:00
2:53 PM,15.1,3.9,61,30.31,9.0,WSW,13.8,20.7,N/A,,Overcast,240,2013-02-01 19:53:00
3:53 PM,15.1,3.9,61,30.33,9.0,WSW,16.1,20.7,0.00,,Overcast,240,2013-02-01 20:53:00
4:53 PM,15.1,3.9,61,30.34,9.0,West,8.1,-,0.00,,Overcast,260,2013-02-01 21:53:00
5:53 PM,14.0,1.0,56,30.35,10.0,WSW,11.5,-,0.00,,Mostly Cloudy,240,2013-02-01 22:53:00
6:53 PM,14.0,1.9,59,30.37,10.0,WSW,8.1,-,N/A,,Overcast,240,2013-02-01 23:53:00
7:53 PM,14.0,1.0,56,30.38,10.0,WSW,9.2,-,N/A,,Overcast,240,2013-02-02 00:53:00
8:53 PM,12.0,-0.0,59,30.39,10.0,SW,4.6,-,N/A,,Clear,230,2013-02-02 01:53:00
9:53 PM,9.0,-0.0,67,30.40,10.0,SSW,4.6,-,N/A,,Clear,200,2013-02-02 02:53:00
10:53 PM,9.0,-0.0,67,30.39,10.0,South,3.5,-,N/A,,Clear,190,2013-02-02 03:53:00
11:53 PM,9.0,-0.0,67,30.38,10.0,Calm,Calm,-,N/A,,Clear,0,2013-02-02 04:53:00